User: anonymous   Login
Location: Unspecified
(0.0000°N, 0.0000°E)
Time: 00:37:13
(UTC+00:00)
Language:

Optus B3 - Orbit

View from above orbital plane
View from above orbital plane
View from above satellite
View from above satellite

Ground track
Ground track

The orbit data is extracted from the following two-line orbital elements,

1 23227U 94055A   15209.52618060 -.00000087  00000-0  00000+0 0  9999
2 23227 006.2663 055.6299 0006108 100.7013 143.1626 01.00273551 76565
Epoch (UTC): 28 July 2015 12:37:42
Eccentricity: 0.0006108
inclination: 6.2663°
perigee height: 35760 km
apogee height: 35811 km
right ascension of ascending node: 55.6299°
argument of perigee: 100.7013°
revolutions per day: 1.00273551
mean anomaly at epoch: 143.1626°
orbit number at epoch: 7656

The dashed part of the orbit path shows where the satellite is in the earth's shadow,  

DLR